This is the latest recevied weather packets stored in our database for station/object K8WEH. If no packets are shown the sender has not sent any weather packets the latest 10 day(s).
| Time | Temp. | Humidity | Pressure | Rain* | Wind** | Luminosity | Snow |
|---|---|---|---|---|---|---|---|
| 1777575927 | 11.67° C | 67% | 1018.1 hPa | 0 mm | - | - | - |
| 1777575627 | 11.67° C | 64% | 1017.9 hPa | 0 mm | - | - | - |
| 1777575329 | 11.67° C | 60% | 1018.1 hPa | 0 mm | - | - | - |
| 1777575027 | 12.78° C | 59% | 1018 hPa | 0 mm | - | - | - |
| 1777574725 | 13.33° C | 61% | 1017.8 hPa | 0 mm | - | - | - |
| 1777574424 | 12.78° C | 68% | 1017.7 hPa | 0 mm | - | - | - |
| 1777574123 | 12.22° C | 65% | 1017.7 hPa | 0 mm | - | - | - |
| 1777573822 | 11.67° C | 66% | 1017.7 hPa | 0 mm | - | - | - |
| 1777573521 | 11.67° C | 65% | 1017.6 hPa | 0 mm | - | - | - |
| 1777573219 | 11.67° C | 64% | 1017.5 hPa | 0 mm | - | - | - |
| 1777572923 | 11.67° C | 69% | 1017.6 hPa | 0 mm | - | - | - |
| 1777572620 | 11.11° C | 69% | 1017.7 hPa | 0 mm | - | - | - |
| 1777572318 | 10.56° C | 68% | 1017.7 hPa | 0 mm | - | - | - |
| 1777572018 | 10.56° C | 67% | 1017.7 hPa | 0 mm | - | - | - |
| 1777571717 | 10.56° C | 72% | 1017.8 hPa | 0 mm | - | - | - |
| 1777571419 | 10° C | 68% | 1017.9 hPa | 0 mm | - | - | - |
| 1777571116 | 10.56° C | 69% | 1017.9 hPa | 0 mm | - | - | - |
| 1777570815 | 10.56° C | 70% | 1018 hPa | 0 mm | - | - | - |
| 1777570515 | 10.56° C | 69% | 1018.1 hPa | 0 mm | - | - | - |
| 1777570214 | 10.56° C | 73% | 1018.1 hPa | 0 mm | - | - | - |
| 1777569913 | 10° C | 75% | 1018.2 hPa | 0 mm | - | - | - |
| 1777569612 | 9.44° C | 75% | 1018.3 hPa | 0 mm | - | - | - |
| 1777569321 | 8.89° C | 74% | 1018.5 hPa | 0 mm | - | - | - |
| 1777569011 | 8.89° C | 75% | 1018.6 hPa | 0 mm | - | - | - |
| 1777568711 | 8.89° C | 75% | 1018.5 hPa | 0 mm | - | - | - |
* Rain latest hour (hover to see other rain measurements)
** Current wind speed in m/s (hover to see current wind gust speed)